User: anonymous   Login
Location: Mount Tamalpais State Park
(37.9108°N, 122.6128°W)
Time: 10:13:54
(UTC-07:00)
Language:

Cosmos 1814 Rocket - Orbit

View from above orbital plane
View from above orbital plane
View from above satellite
View from above satellite

Ground track
Ground track

The orbit data is extracted from the following two-line orbital elements,

1 17304U 87006B   16270.42099091  .00000038  00000-0  21251-4 0  9992
2 17304  74.0593 215.4642 0028675 121.7334 238.6620 14.37580604555390
Epoch (UTC): 26 September 2016 10:06:13
Eccentricity: 0.0028675
inclination: 74.0593°
perigee height: 746 km
apogee height: 787 km
right ascension of ascending node: 215.4642°
argument of perigee: 121.7334°
revolutions per day: 14.37580604
mean anomaly at epoch: 238.6620°
orbit number at epoch: 55539

The dashed part of the orbit path shows where the satellite is in the earth's shadow,  

DLR